This demonstration page uses our WeatherBlox Daily Observations layout. Learn more.

Hourly Observations for March 23, 2015

Temp ( °F °C ) Dew Point ( °F °C ) Humidity (%) Winds ( mph kmh ) Pressure ( in mb ) Visibility ( mi km ) Precip ( " mm )
12:15 am 00:15 Clear 37 3 20 -6.5 50 50 N 8 13 30.21 1023 10 16.0934 0 0
12:35 am 00:35 Clear 37 2.8 20 -6.5 51 51 N 9 15 30.21 1023 10 16.0934 0 0
12:55 am 00:55 Clear 36 2.4 20 -6.6 52 52 N 8 13 30.21 1023 10 16.0934 0 0
1:15 am 01:15 Clear 35 1.7 20 -6.6 54 54 N 7 11 30.21 1023 10 16.0934 0 0
1:35 am 01:35 Clear 33 0.8 20 -6.6 58 58 N 6 9 30.21 1023 10 16.0934 0 0
1:55 am 01:55 Clear 34 1.1 20 -6.5 57 57 N 10 17 30.21 1023 10 16.0934 0 0
2:15 am 02:15 Clear 34 1.2 20 -6.5 57 57 N 8 13 30.21 1023 10 16.0934 0 0
2:35 am 02:35 Clear 34 1 20 -6.5 58 58 N 7 11 30.21 1023 10 16.0934 0 0
2:55 am 02:55 Clear 34 1.2 20 -6.6 56 56 N 7 11 30.21 1023 10 16.0934 0 0
3:15 am 03:15 Clear 32 0.2 20 -6.8 60 60 NW 6 9 30.24 1024 10 16.0934 0 0
3:35 am 03:35 Clear 32 0 20 -6.8 61 61 NW 6 9 30.24 1024 10 16.0934 0 0
3:55 am 03:55 Clear 31 -0.5 20 -6.6 64 64 NW 7 11 30.24 1024 10 16.0934 0 0
4:15 am 04:15 Clear 33 0.3 20 -6.4 61 61 NNW 9 15 30.24 1024 10 16.0934 0 0
4:35 am 04:35 Clear 34 1 20 -6.5 58 58 NNW 5 7 30.21 1023 10 16.0934 0 0
4:55 am 04:55 Clear 34 1.1 21 -6.2 59 59 NNW 6 9 30.21 1023 10 16.0934 0 0
5:15 am 05:15 Clear 35 1.4 21 -6.2 57 57 N 7 11 30.21 1023 10 16.0934 0 0
5:35 am 05:35 Clear 34 1.2 21 -6.3 58 58 N 6 9 30.21 1023 10 16.0934 0 0
5:55 am 05:55 Clear 34 1.1 21 -6.2 59 59 N 5 7 30.21 1023 10 16.0934 0 0
6:15 am 06:15 Clear 34 1 21 -6.2 59 59 N 6 9 30.21 1023 10 16.0934 0 0
6:35 am 06:35 Clear 33 0.6 21 -6.3 60 60 N 6 9 30.21 1023 10 16.0934 0 0
6:55 am 06:55 Clear 32 0 20 -6.5 62 62 N 5 7 30.24 1024 10 16.0934 0 0
7:15 am 07:15 Clear 31 -0.6 21 -6.1 67 67 NNE 7 11 30.24 1024 10 16.0934 0 0
7:35 am 07:35 Partly Cloudy 33 0.5 21 -6.1 62 62 NNE 8 13 30.21 1023 10 16.0934 0 0
7:55 am 07:55 Partly Cloudy 33 0.8 21 -6.1 60 60 NE 9 15 30.21 1023 10 16.0934 0 0
8:15 am 08:15 Partly Cloudy 33 0.7 21 -6 61 61 NNE 12 19 30.21 1023 10 16.0934 0 0
8:35 am 08:35 Sunny 33 0.8 21 -6.1 60 60 NE 9 15 30.21 1023 10 16.0934 0 0
8:55 am 08:55 Sunny 35 1.5 21 -6 58 58 NE 12 19 30.21 1023 10 16.0934 0 0
9:15 am 09:15 Sunny 36 2.3 22 -5.7 56 56 NNE 9 15 30.21 1023 10 16.0934 0 0
9:35 am 09:35 Sunny 38 3.2 22 -5.4 54 54 NE 12 19 30.21 1023 10 16.0934 0 0
9:55 am 09:55 Sunny 37 3 22 -5.7 53 53 ENE 5 7 30.21 1023 10 16.0934 0 0
10:15 am 10:15 Sunny 39 3.7 22 -5.6 51 51 NE 5 7 30.18 1022 10 16.0934 0 0
10:35 am 10:35 Partly Cloudy 40 4.2 22 -5.6 49 49 ENE 7 11 30.18 1022 10 16.0934 0 0
10:55 am 10:55 Sunny 41 4.8 22 -5.3 48 48 E 7 11 30.18 1022 10 16.0934 0 0
11:55 am 11:55 Sunny 45 7.4 25 -4.1 44 44 ENE 6 9 30.18 1022 10 16.0934 0 0
12:35 pm 12:35 Sunny 48 8.9 26 -3.2 43 43 SE 7 11 30.15 1021 10 16.0934 0 0
12:55 pm 12:55 Sunny 49 9.3 26 -3.4 41 41 SSE 6 9 30.15 1021 10 16.0934 0 0
1:15 pm 13:15 Sunny 49 9.3 26 -3.2 42 42 SE 5 7 30.12 1020 10 16.0934 0 0
1:35 pm 13:35 Sunny 50 10.1 27 -3 40 40 ESE 7 11 30.12 1020 10 16.0934 0 0
1:55 pm 13:55 Sunny 50 10.2 27 -3 40 40 SSE 3 6 30.12 1020 10 16.0934 0 0
2:15 pm 14:15 Sunny 53 11.4 27 -2.9 37 37 ESE 8 13 30.06 1018 10 16.0934 0 0
2:35 pm 14:35 Sunny 54 12.2 26 -3.3 34 34 SE 10 17 30.06 1018 10 16.0934 0 0
2:55 pm 14:55 Sunny 55 12.5 26 -3.5 33 33 ESE 10 17 30 1016 10 16.0934 0 0
3:15 pm 15:15 Sunny 55 13 26 -3.3 32 32 SE 9 15 30 1016 10 16.0934 0 0
3:35 pm 15:35 Sunny 57 13.9 26 -3.5 30 30 ESE 12 19 29.97 1015 10 16.0934 0 0
3:55 pm 15:55 Partly Cloudy 57 13.8 25 -3.9 29 29 E 12 19 29.97 1015 10 16.0934 0 0
4:15 pm 16:15 Cloudy 58 14.5 26 -3.6 29 29 ESE 13 20 29.97 1015 10 16.0934 0 0
4:35 pm 16:35 Cloudy 57 14 25 -4.1 28 28 ESE 14 22 29.97 1015 10 16.0934 0 0
4:55 pm 16:55 Cloudy 57 14.1 25 -3.9 29 29 ESE 14 22 29.94 1014 10 16.0934 0 0
5:15 pm 17:15 Cloudy 57 13.8 26 -3.3 31 31 ESE 14 22 29.94 1014 10 16.0934 0 0
5:35 pm 17:35 Cloudy 56 13.5 26 -3.4 31 31 ESE 12 19 29.94 1014 10 16.0934 0 0
5:55 pm 17:55 Cloudy 55 13 26 -3.2 33 33 E 16 26 29.94 1014 10 16.0934 0 0
6:15 pm 18:15 Cloudy 56 13.2 26 -3.2 32 32 E 18 30 29.94 1014 10 16.0934 0 0
6:35 pm 18:35 Mostly Cloudy 55 12.8 26 -3.2 33 33 E 20 31 29.91 1013 10 16.0934 0 0
6:55 pm 18:55 Mostly Cloudy 54 12 27 -2.8 36 36 E 18 30 29.91 1013 10 16.0934 0 0
7:15 pm 19:15 Cloudy 51 10.8 27 -2.6 39 39 ESE 16 26 29.97 1015 10 16.0934 0 0
7:35 pm 19:35 Cloudy 50 10.2 28 -2.2 42 42 E 16 26 29.97 1015 10 16.0934 0 0
7:55 pm 19:55 Cloudy 49 9.5 28 -2 45 45 E 15 24 29.97 1015 10 16.0934 0 0
8:15 pm 20:15 Cloudy 49 9.2 29 -1.6 47 47 E 14 22 29.97 1015 10 16.0934 0 0
8:35 pm 20:35 Mostly Cloudy 47 8.6 29 -1.5 49 49 E 13 20 29.97 1015 10 16.0934 0 0
8:55 pm 20:55 Cloudy 47 8.3 30 -1.2 52 52 E 13 20 30 1016 10 16.0934 0 0
9:15 pm 21:15 Cloudy 46 8 30 -1.2 53 53 E 14 22 30 1016 10 16.0934 0 0
9:35 pm 21:35 Mostly Cloudy 44 6.9 30 -1.3 56 56 E 12 19 30 1016 10 16.0934 0 0
9:55 pm 21:55 Cloudy 45 7.1 30 -1.1 56 56 E 14 22 30 1016 10 16.0934 0 0
10:15 pm 22:15 Cloudy 45 7 30 -1 57 57 ESE 13 20 30 1016 10 16.0934 0 0
10:35 pm 22:35 Partly Cloudy 44 6.7 30 -1.1 58 58 E 13 20 30 1016 10 16.0934 0 0
10:55 pm 22:55 Clear 42 5.7 30 -1.3 61 61 E 12 19 30 1016 10 16.0934 0 0
11:15 pm 23:15 Mostly Cloudy 43 6 30 -1.2 60 60 E 9 15 30 1016 10 16.0934 0 0
11:35 pm 23:35 Cloudy 43 5.9 30 -1.2 61 61 E 14 22 29.97 1015 10 16.0934 0 0
11:55 pm 23:55 Cloudy 42 5.8 30 -1.2 61 61 E 14 22 29.97 1015 10 16.0934 0 0

Powered by AerisWeather